• In Netherlands
  • List of Countries
  • For 7 days
  • Water Temperature
  • Satellite Maps
  • Weather Map
  • Weather Widgets
  • user-avatar
    Login

    Hourly Weather Berat

    Today, 24 March, Friday

    Time Temperature Precipitation Wind Pressure Humidity
    00:00 +12°C° 0 mm 0 mps 748 mmHg 87%
    01:00 +12°C° 0 mm 0 mps 748 mmHg 86%
    02:00 +11°C° 0 mm 0 mps 748 mmHg 86%
    03:00 +12°C° 0 mm 1 mps 748 mmHg 86%
    04:00 +12°C° 0 mm 1 mps 748 mmHg 85%
    05:00 +13°C° 0 mm 1 mps 748 mmHg 80%
    06:00 +15°C° 0 mm 1 mps 748 mmHg 75%
    07:00 +16°C° 0 mm 1 mps 748 mmHg 69%
    08:00 +19°C° 0 mm 1 mps 749 mmHg 62%
    09:00 +22°C° 0 mm 1 mps 749 mmHg 54%
    10:00 +24°C° 0 mm 1 mps 749 mmHg 47%
    11:00 +24°C° 0 mm 1 mps 749 mmHg 45%
    12:00 +25°C° 0 mm 2 mps 749 mmHg 43%
    13:00 +26°C° 0 mm 2 mps 748 mmHg 41%
    14:00 +25°C° 0 mm 2 mps 748 mmHg 43%
    15:00 +24°C° 0 mm 3 mps 748 mmHg 45%
    16:00 +22°C° 0 mm 3 mps 748 mmHg 48%
    17:00 +20°C° 0 mm 2 mps 748 mmHg 56%
    18:00 +17°C° 0 mm 2 mps 747 mmHg 65%
    19:00 +15°C° 0 mm 1 mps 747 mmHg 73%
    20:00 +15°C° 0 mm 1 mps 748 mmHg 74%
    21:00 +14°C° 0 mm 1 mps 748 mmHg 74%
    22:00 +14°C° 0 mm 1 mps 748 mmHg 75%
    23:00 +13°C° 0 mm 0 mps 748 mmHg 76%

    Tomorrow, 25 March, Saturday

    Time Temperature Precipitation Wind Pressure Humidity
    00:00 +12°C° 0 mm 0 mps 748 mmHg 77%
    01:00 +12°C° 0 mm 0 mps 748 mmHg 78%
    02:00 +12°C° 0 mm 0 mps 748 mmHg 79%
    03:00 +12°C° 0 mm 0 mps 748 mmHg 80%
    04:00 +12°C° 0 mm 1 mps 748 mmHg 81%
    05:00 +13°C° 0 mm 0 mps 748 mmHg 78%
    06:00 +14°C° 0 mm 0 mps 748 mmHg 74%
    07:00 +16°C° 0 mm 0 mps 748 mmHg 70%
    08:00 +20°C° 0 mm 1 mps 748 mmHg 62%
    09:00 +22°C° 0 mm 1 mps 748 mmHg 55%
    10:00 +23°C° 0 mm 1 mps 749 mmHg 47%
    11:00 +24°C° 0.1 mm 2 mps 748 mmHg 47%
    12:00 +24°C° 0.1 mm 2 mps 748 mmHg 47%
    13:00 +24°C° 0.1 mm 3 mps 747 mmHg 46%
    14:00 +24°C° 0.2 mm 3 mps 747 mmHg 50%
    15:00 +22°C° 0.2 mm 3 mps 747 mmHg 53%
    16:00 +21°C° 0.2 mm 3 mps 746 mmHg 57%
    17:00 +19°C° 0 mm 2 mps 746 mmHg 66%
    18:00 +16°C° 0 mm 2 mps 747 mmHg 76%
    19:00 +14°C° 0 mm 1 mps 747 mmHg 85%
    20:00 +14°C° 0 mm 1 mps 747 mmHg 86%
    21:00 +13°C° 0 mm 1 mps 747 mmHg 88%
    22:00 +12°C° 0 mm 0 mps 747 mmHg 89%
    23:00 +11°C° 0 mm 0 mps 747 mmHg 89%

    Day after tomorrow, 26 March, Sunday

    Time Temperature Precipitation Wind Pressure Humidity
    00:00 +11°C° 0 mm 0 mps 747 mmHg 89%
    01:00 +10°C° 0 mm 0 mps 747 mmHg 88%
    02:00 +10°C° 0 mm 0 mps 746 mmHg 88%
    03:00 +10°C° 0 mm 0 mps 746 mmHg 88%
    04:00 +9°C° 0 mm 0 mps 746 mmHg 87%
    05:00 +12°C° 0 mm 1 mps 746 mmHg 81%
    06:00 +13°C° 0 mm 1 mps 746 mmHg 75%
    07:00 +15°C° 0 mm 1 mps 746 mmHg 69%
    08:00 +16°C° 0 mm 1 mps 746 mmHg 62%
    09:00 +19°C° 0 mm 1 mps 745 mmHg 54%
    10:00 +20°C° 0 mm 2 mps 745 mmHg 47%
    11:00 +20°C° 0 mm 2 mps 745 mmHg 47%
    12:00 +21°C° 0 mm 3 mps 744 mmHg 47%
    13:00 +21°C° 0 mm 4 mps 744 mmHg 47%
    14:00 +20°C° 0.1 mm 4 mps 743 mmHg 51%
    15:00 +19°C° 0.1 mm 3 mps 743 mmHg 55%
    16:00 +19°C° 0.1 mm 3 mps 742 mmHg 59%
    17:00 +17°C° 0.1 mm 3 mps 742 mmHg 68%
    18:00 +15°C° 0.1 mm 2 mps 742 mmHg 76%
    19:00 +13°C° 0.1 mm 2 mps 742 mmHg 85%
    20:00 +13°C° 0 mm 2 mps 742 mmHg 87%
    21:00 +12°C° 0 mm 2 mps 742 mmHg 89%
    22:00 +12°C° 0 mm 2 mps 742 mmHg 91%
    23:00 +12°C° 0 mm 2 mps 742 mmHg 92%

    27 March, Monday

    Time Temperature Precipitation Wind Pressure Humidity
    00:00 +10°C° 0 mm 2 mps 742 mmHg 92%
    01:00 +10°C° 0 mm 2 mps 742 mmHg 93%
    02:00 +10°C° 0.1 mm 2 mps 741 mmHg 92%
    03:00 +10°C° 0.1 mm 2 mps 741 mmHg 92%
    04:00 +9°C° 0.1 mm 2 mps 741 mmHg 91%
    05:00 +10°C° 0.5 mm 2 mps 741 mmHg 89%
    06:00 +10°C° 0.5 mm 3 mps 741 mmHg 87%
    07:00 +11°C° 0.5 mm 3 mps 741 mmHg 84%
    08:00 +11°C° 1.2 mm 3 mps 741 mmHg 81%
    09:00 +11°C° 1.2 mm 4 mps 741 mmHg 78%
    10:00 +11°C° 1.2 mm 4 mps 741 mmHg 74%
    11:00 +11°C° 0.6 mm 4 mps 741 mmHg 72%
    12:00 +12°C° 0.6 mm 4 mps 742 mmHg 69%
    13:00 +12°C° 0.6 mm 4 mps 742 mmHg 67%
    14:00 +12°C° 0.2 mm 3 mps 742 mmHg 67%
    15:00 +12°C° 0.2 mm 3 mps 742 mmHg 67%
    16:00 +12°C° 0.2 mm 3 mps 742 mmHg 68%
    17:00 +11°C° 0 mm 3 mps 743 mmHg 72%
    18:00 +10°C° 0 mm 3 mps 743 mmHg 76%
    19:00 +9°C° 0 mm 3 mps 744 mmHg 80%
    20:00 +8°C° 0 mm 3 mps 744 mmHg 81%
    21:00 +8°C° 0 mm 3 mps 745 mmHg 82%
    22:00 +7°C° 0 mm 3 mps 746 mmHg 82%
    23:00 +7°C° 0 mm 3 mps 746 mmHg 82%

    28 March, Tuesday

    Time Temperature Precipitation Wind Pressure Humidity
    00:00 +7°C° 0 mm 3 mps 746 mmHg 82%
    01:00 +5°C° 0 mm 3 mps 747 mmHg 83%
    02:00 +5°C° 0 mm 3 mps 747 mmHg 82%
    03:00 +5°C° 0 mm 3 mps 747 mmHg 82%
    04:00 +5°C° 0 mm 3 mps 747 mmHg 81%
    05:00 +5°C° 0 mm 3 mps 748 mmHg 79%
    06:00 +7°C° 0 mm 3 mps 748 mmHg 76%
    07:00 +8°C° 0 mm 3 mps 748 mmHg 73%
    08:00 +10°C° 0 mm 3 mps 749 mmHg 64%
    09:00 +12°C° 0 mm 3 mps 749 mmHg 55%
    10:00 +14°C° 0 mm 3 mps 749 mmHg 46%
    11:00 +16°C° 0 mm 3 mps 749 mmHg 44%
    12:00 +17°C° 0 mm 3 mps 749 mmHg 42%
    13:00 +18°C° 0 mm 3 mps 749 mmHg 40%
    14:00 +18°C° 0 mm 3 mps 749 mmHg 42%
    15:00 +17°C° 0 mm 3 mps 749 mmHg 44%
    16:00 +17°C° 0 mm 3 mps 749 mmHg 46%
    17:00 +14°C° 0 mm 3 mps 749 mmHg 55%
    18:00 +12°C° 0 mm 3 mps 750 mmHg 64%
    19:00 +9°C° 0 mm 3 mps 750 mmHg 73%
    20:00 +9°C° 0 mm 3 mps 750 mmHg 73%
    21:00 +9°C° 0 mm 2 mps 751 mmHg 72%
    22:00 +8°C° 0 mm 2 mps 751 mmHg 72%
    23:00 +8°C° 0 mm 2 mps 751 mmHg 72%

    29 March, Wednesday

    Time Temperature Precipitation Wind Pressure Humidity
    00:00 +8°C° 0 mm 2 mps 751 mmHg 71%
    01:00 +8°C° 0 mm 2 mps 751 mmHg 71%
    02:00 +7°C° 0 mm 2 mps 751 mmHg 71%
    03:00 +7°C° 0 mm 2 mps 751 mmHg 70%
    04:00 +7°C° 0 mm 2 mps 751 mmHg 69%
    05:00 +8°C° 0 mm 2 mps 751 mmHg 66%
    06:00 +9°C° 0 mm 2 mps 751 mmHg 63%
    07:00 +10°C° 0 mm 2 mps 752 mmHg 60%
    08:00 +13°C° 0 mm 2 mps 752 mmHg 53%
    09:00 +16°C° 0 mm 2 mps 752 mmHg 45%
    10:00 +19°C° 0 mm 1 mps 752 mmHg 37%
    11:00 +19°C° 0 mm 2 mps 752 mmHg 36%
    12:00 +20°C° 0 mm 2 mps 751 mmHg 34%
    13:00 +21°C° 0 mm 2 mps 751 mmHg 33%
    14:00 +20°C° 0 mm 2 mps 751 mmHg 36%
    15:00 +20°C° 0 mm 3 mps 750 mmHg 38%
    16:00 +19°C° 0 mm 3 mps 750 mmHg 41%
    17:00 +16°C° 0 mm 2 mps 750 mmHg 50%
    18:00 +14°C° 0 mm 2 mps 750 mmHg 60%
    19:00 +10°C° 0 mm 2 mps 750 mmHg 69%
    20:00 +11°C° 0 mm 1 mps 750 mmHg 69%
    21:00 +11°C° 0 mm 1 mps 751 mmHg 69%
    22:00 +10°C° 0 mm 1 mps 751 mmHg 69%
    23:00 +10°C° 0 mm 1 mps 750 mmHg 69%
    Show more